Вернуться в каталог

STARLINK-1276

АктивенСвязьVLEO
NORAD 45368·PAYLOAD·🇺🇸 United States

Запущен Mar 18, 2020 с Cape Canaveral Space Force Station

Loading…

Ближайшие Пролёты (ближайшие 24 часа)

TLE

СвежийSource: CelesTrak SupGP

Эпоха: Sep 15, 2026, 00:13 UTC

1 45368C 20019J   26258.00951389 -.00014430  00000+0 -68948-3 0  2585
2 45368  53.0719  26.2133 0000797  57.4196 359.9403 15.18515193    18

Отслеживайте STARLINK-1276 в реальном времени с AllMySat

Download on the App Store